| time (UTC) | temp F | wind direction | speed MPH | gust MPH | rain 1hr in | rain 24hr in | rain mn in | humidity % | barometer mb |
| 20260507072446 | 51 | 10 | 1.0 | 4.0 | 0.35 | 0.07 | 0.07 | 95 | 1009.4 |
| 20260507071943 | 51 | 354 | 1.0 | 6.0 | 0.19 | 0.04 | 0.04 | 95 | 1009.4 |
| 20260507071440 | 51 | 315 | 3.0 | 6.0 | 0.07 | 0.01 | 0.01 | 94 | 1009.6 |
| 20260507070936 | 51 | 354 | 2.0 | 3.0 | 0.07 | 0.01 | 0.01 | 94 | 1009.1 |
| 20260507070434 | 51 | 292 | 2.0 | 2.0 | 0.00 | 0.00 | 0.00 | 95 | 1009.1 |
| 20260507065930 | 51 | 304 | 1.0 | 3.0 | 0.00 | 0.00 | 0.00 | 94 | 1008.6 |
| 20260507065427 | 51 | 11 | 0.0 | 2.0 | 0.00 | 0.00 | 0.00 | 94 | 1008.5 |
| 20260507064925 | 51 | 14 | 1.0 | 4.0 | 0.00 | 0.00 | 0.00 | 94 | 1008.5 |
| 20260507064423 | 51 | 2 | 4.0 | 7.0 | 0.00 | 0.00 | 0.00 | 94 | 1008.4 |
| 20260507063920 | 51 | 334 | 4.0 | 6.0 | 0.00 | 0.00 | 0.00 | 94 | 1008.7 |
| 20260507063417 | 52 | 15 | 2.0 | 6.0 | 0.00 | 0.00 | 0.00 | 94 | 1008.7 |
| 20260507062914 | 52 | 352 | 3.0 | 6.0 | 0.00 | 0.00 | 0.00 | 94 | 1008.8 |
| 20260507062411 | 52 | 16 | 0.0 | 3.0 | 0.00 | 0.00 | 0.00 | 94 | 1008.9 |
| 20260507061908 | 52 | 4 | 4.0 | 4.0 | 0.00 | 0.00 | 0.00 | 94 | 1008.7 |
| 20260507061407 | 52 | 344 | 3.0 | 4.0 | 0.00 | 0.00 | 0.00 | 94 | 1008.9 |
| 20260507060905 | 52 | 15 | 1.0 | 3.0 | 0.00 | 0.00 | 0.00 | 94 | 1008.7 |
| 20260507060401 | 53 | 13 | 2.0 | 3.0 | 0.00 | 0.00 | 0.00 | 94 | 1008.9 |
| 20260507055858 | 53 | 1 | 4.0 | 8.0 | 0.00 | 0.00 | 0.00 | 95 | 1008.9 |
| 20260507055353 | 53 | 350 | 2.0 | 6.0 | 0.00 | 0.00 | 0.00 | 95 | 1008.9 |
| 20260507054850 | 53 | 13 | 0.0 | 3.0 | 0.00 | 0.00 | 0.00 | 96 | 1009.0 |
| 20260507054346 | 53 | 21 | 1.0 | 4.0 | 0.00 | 0.00 | 0.00 | 96 | 1008.8 |
| 20260507053843 | 54 | 14 | 0.0 | 2.0 | 0.00 | 0.00 | 0.00 | 96 | 1009.0 |
| 20260507053341 | 54 | 29 | 2.0 | 9.0 | 0.00 | 0.00 | 0.00 | 97 | 1008.9 |
| 20260507052840 | 54 | 349 | 9.0 | 13.0 | 0.00 | 0.00 | 0.00 | 97 | 1009.1 |
| 20260507052336 | 54 | 337 | 4.0 | 6.0 | 0.00 | 0.00 | 0.00 | 97 | 1009.0 |
| 20260507051834 | 54 | 25 | 0.0 | 6.0 | 0.00 | 0.00 | 0.00 | 97 | 1009.2 |
| 20260507051331 | 54 | 9 | 3.0 | 6.0 | 0.00 | 0.00 | 0.00 | 97 | 1009.1 |
| 20260507050828 | 55 | 17 | 0.0 | 7.0 | 0.00 | 0.00 | 0.00 | 97 | 1009.1 |
| 20260507050324 | 55 | 14 | 1.0 | 3.0 | 0.00 | 0.00 | 0.00 | 98 | 1009.1 |
| 20260507045821 | 55 | 17 | 1.0 | 3.0 | 0.00 | 0.00 | 0.00 | 98 | 1009.2 |
| 20260507045318 | 55 | 11 | 1.0 | 2.0 | 0.00 | 0.00 | 0.00 | 98 | 1009.2 |
| 20260507044815 | 55 | 343 | 2.0 | 3.0 | 0.00 | 0.00 | 0.00 | 98 | 1009.4 |
| 20260507044311 | 55 | 335 | 4.0 | 6.0 | 0.00 | 0.00 | 0.00 | 98 | 1009.3 |
| 20260507043807 | 55 | 5 | 0.0 | 8.0 | 0.00 | 0.00 | 0.00 | 98 | 1009.2 |
| 20260507043304 | 55 | 313 | 3.0 | 4.0 | 0.00 | 0.00 | 0.00 | 98 | 1008.9 |
| 20260507042800 | 55 | 12 | 2.0 | 8.0 | 0.00 | 0.00 | 0.00 | 98 | 1009.1 |
| 20260507042256 | 55 | 36 | 0.0 | 3.0 | 0.00 | 0.00 | 0.00 | 98 | 1009.2 |
| 20260507041753 | 55 | 280 | 6.0 | 10.0 | 0.00 | 0.00 | 0.00 | 98 | 1009.3 |
| 20260507041249 | 56 | 294 | 6.0 | 9.0 | 0.00 | 0.00 | 0.00 | 98 | 1009.4 |
| 20260507040747 | 57 | 293 | 3.0 | 11.0 | 0.00 | 0.00 | 0.00 | 98 | 1009.2 |
| 20260507040243 | 57 | 121 | 1.0 | 6.0 | 0.00 | 0.00 | 0.00 | 99 | 1009.0 |
| 20260507035739 | 57 | 99 | 1.0 | 7.0 | 0.00 | 0.12 | 0.12 | 99 | 1009.1 |
| 20260507035234 | 57 | 296 | 4.0 | 8.0 | 0.00 | 0.12 | 0.12 | 99 | 1009.1 |
| 20260507034732 | 57 | 5 | 1.0 | 6.0 | 0.00 | 0.12 | 0.12 | 99 | 1009.1 |
| 20260507034229 | 57 | 350 | 3.0 | 6.0 | 0.00 | 0.12 | 0.12 | 99 | 1009.1 |
| 20260507033727 | 57 | 7 | 0.0 | 7.0 | 0.00 | 0.12 | 0.12 | 99 | 1009.0 |
| 20260507033224 | 57 | 219 | 2.0 | 4.0 | 0.00 | 0.12 | 0.12 | 99 | 1009.0 |
| 20260507032722 | 57 | 301 | 1.0 | 7.0 | 0.00 | 0.12 | 0.12 | 99 | 1009.0 |
| 20260507032218 | 57 | 17 | 3.0 | 10.0 | 0.00 | 0.12 | 0.12 | 99 | 1009.1 |
| 20260507031715 | 57 | 193 | 11.0 | 14.0 | 0.00 | 0.12 | 0.12 | 99 | 1008.9 |
| 20260507031211 | 56 | 205 | 6.0 | 10.0 | 0.00 | 0.12 | 0.12 | 99 | 1009.2 |
| 20260507030708 | 56 | 197 | 10.0 | 15.0 | 0.00 | 0.12 | 0.12 | 99 | 1009.1 |
| 20260507030206 | 56 | 201 | 2.0 | 7.0 | 0.00 | 0.12 | 0.12 | 99 | 1009.0 |
| 20260507025702 | 56 | 3 | 3.0 | 8.0 | 0.00 | 0.12 | 0.12 | 98 | 1008.9 |
| 20260507025159 | 56 | 178 | 7.0 | 8.0 | 0.00 | 0.12 | 0.12 | 98 | 1009.0 |
| 20260507024658 | 56 | 263 | 4.0 | 10.0 | 0.00 | 0.12 | 0.12 | 98 | 1009.1 |
| 20260507024154 | 57 | 194 | 5.0 | 8.0 | 0.00 | 0.12 | 0.12 | 98 | 1009.0 |
| 20260507023650 | 57 | 271 | 4.0 | 9.0 | 0.00 | 0.12 | 0.12 | 98 | 1009.1 |
| 20260507023147 | 57 | 132 | 9.0 | 11.0 | 0.00 | 0.12 | 0.12 | 98 | 1009.1 |
| 20260507022644 | 57 | 141 | 5.0 | 9.0 | 0.00 | 0.12 | 0.12 | 98 | 1009.0 |
| 20260507022140 | 57 | 169 | 7.0 | 11.0 | 0.00 | 0.12 | 0.12 | 98 | 1008.8 |
| 20260507021637 | 57 | 194 | 7.0 | 9.0 | 0.00 | 0.12 | 0.12 | 98 | 1009.2 |
| 20260507021132 | 57 | 218 | 9.0 | 11.0 | 0.00 | 0.12 | 0.12 | 98 | 1009.0 |
| 20260507020631 | 57 | 53 | 5.0 | 11.0 | 0.00 | 0.12 | 0.12 | 98 | 1008.9 |
| 20260507020126 | 56 | 122 | 13.0 | 17.0 | 0.00 | 0.12 | 0.12 | 98 | 1009.3 |
| 20260507015625 | 56 | 353 | 2.0 | 9.0 | 0.00 | 0.12 | 0.12 | 98 | 1009.3 |
| 20260507015122 | 56 | 158 | 9.0 | 13.0 | 0.00 | 0.12 | 0.12 | 98 | 1009.0 |
| 20260507014619 | 56 | 76 | 4.0 | 8.0 | 0.00 | 0.12 | 0.12 | 98 | 1009.0 |
| 20260507014114 | 56 | 29 | 3.0 | 6.0 | 0.00 | 0.12 | 0.12 | 98 | 1009.0 |
| 20260507013611 | 56 | 101 | 2.0 | 7.0 | 0.00 | 0.12 | 0.12 | 98 | 1008.9 |
| 20260507013108 | 56 | 7 | 3.0 | 4.0 | 0.00 | 0.12 | 0.12 | 98 | 1008.7 |
| 20260507012606 | 56 | 73 | 3.0 | 13.0 | 0.00 | 0.12 | 0.12 | 98 | 1009.0 |
| 20260507012102 | 56 | 186 | 5.0 | 6.0 | 0.00 | 0.12 | 0.12 | 98 | 1009.1 |
| 20260507011600 | 56 | 57 | 2.0 | 6.0 | 0.00 | 0.12 | 0.12 | 98 | 1009.1 |
| 20260507011056 | 56 | 87 | 2.0 | 6.0 | 0.00 | 0.12 | 0.12 | 98 | 1009.1 |
| 20260507010556 | 56 | 204 | 6.0 | 7.0 | 0.00 | 0.12 | 0.12 | 98 | 1009.2 |
| 20260507010052 | 56 | 158 | 3.0 | 9.0 | 0.00 | 0.12 | 0.12 | 98 | 1009.4 |
| 20260507005550 | 56 | 145 | 4.0 | 8.0 | 0.00 | 0.12 | 0.12 | 98 | 1009.4 |
| 20260507005046 | 56 | 357 | 2.0 | 8.0 | 0.00 | 0.12 | 0.12 | 98 | 1009.4 |
| 20260507004543 | 56 | 30 | 4.0 | 11.0 | 0.00 | 0.12 | 0.12 | 98 | 1009.4 |
| 20260507004040 | 56 | 133 | 5.0 | 10.0 | 0.00 | 0.12 | 0.12 | 98 | 1009.3 |
| 20260507003536 | 56 | 258 | 8.0 | 11.0 | 0.00 | 0.12 | 0.12 | 98 | 1009.4 |
| 20260507003031 | 56 | 184 | 5.0 | 9.0 | 0.00 | 0.12 | 0.12 | 98 | 1009.5 |
| 20260507002528 | 56 | 300 | 4.0 | 13.0 | 0.00 | 0.12 | 0.12 | 98 | 1009.5 |
| 20260507002025 | 56 | 127 | 6.0 | 9.0 | 0.00 | 0.12 | 0.12 | 98 | 1009.2 |
| 20260507001521 | 56 | 47 | 4.0 | 14.0 | 0.00 | 0.12 | 0.12 | 98 | 1009.2 |
| 20260507001019 | 56 | 328 | 4.0 | 13.0 | 0.00 | 0.12 | 0.12 | 98 | 1009.2 |
| 20260507000514 | 56 | 146 | 4.0 | 13.0 | 0.00 | 0.12 | 0.12 | 97 | 1009.1 |
| 20260507000010 | 56 | 19 | 4.0 | 9.0 | 0.00 | 0.12 | 0.12 | 97 | 1009.1 |
| 20260506235508 | 56 | 15 | 2.0 | 14.0 | 0.00 | 0.12 | 0.12 | 97 | 1009.2 |
| 20260506235003 | 56 | 174 | 7.0 | 13.0 | 0.00 | 0.12 | 0.12 | 97 | 1009.3 |
| 20260506234501 | 56 | 210 | 9.0 | 16.0 | 0.00 | 0.12 | 0.12 | 97 | 1009.0 |
| 20260506233958 | 56 | 45 | 3.0 | 10.0 | 0.00 | 0.12 | 0.12 | 97 | 1009.0 |
| 20260506233455 | 56 | 32 | 5.0 | 11.0 | 0.00 | 0.12 | 0.12 | 97 | 1009.2 |
| 20260506232951 | 56 | 343 | 3.0 | 13.0 | 0.00 | 0.12 | 0.12 | 97 | 1009.0 |
| 20260506232448 | 56 | 283 | 4.0 | 7.0 | 0.00 | 0.12 | 0.12 | 97 | 1008.8 |
| 20260506231943 | 56 | 231 | 4.0 | 8.0 | 0.00 | 0.12 | 0.12 | 97 | 1009.0 |
| 20260506231441 | 56 | 49 | 4.0 | 8.0 | 0.05 | 0.12 | 0.12 | 97 | 1008.9 |
| 20260506230938 | 56 | 168 | 11.0 | 13.0 | 0.05 | 0.12 | 0.12 | 97 | 1009.0 |
| 20260506230434 | 56 | 49 | 1.0 | 4.0 | 0.00 | 0.11 | 0.11 | 96 | 1009.0 |
| 20260506225931 | 56 | 162 | 8.0 | 11.0 | 0.00 | 0.11 | 0.11 | 96 | 1009.0 |
| 20260506225428 | 56 | 173 | 9.0 | 13.0 | 0.00 | 0.11 | 0.11 | 96 | 1009.0 |
| 20260506224925 | 56 | 201 | 9.0 | 13.0 | 0.00 | 0.11 | 0.11 | 96 | 1009.0 |
| 20260506224422 | 56 | 190 | 11.0 | 13.0 | 0.00 | 0.11 | 0.11 | 96 | 1008.8 |
| 20260506223919 | 57 | 239 | 6.0 | 11.0 | 0.00 | 0.11 | 0.11 | 96 | 1008.8 |
| 20260506223414 | 57 | 111 | 5.0 | 9.0 | 0.00 | 0.11 | 0.11 | 96 | 1009.0 |
| 20260506222912 | 57 | 148 | 4.0 | 11.0 | 0.07 | 0.11 | 0.11 | 96 | 1008.9 |
| 20260506222408 | 57 | 176 | 4.0 | 6.0 | 0.12 | 0.11 | 0.11 | 96 | 1008.9 |
| 20260506221906 | 57 | 342 | 6.0 | 9.0 | 0.05 | 0.10 | 0.10 | 96 | 1009.0 |
| 20260506221402 | 57 | 150 | 9.0 | 13.0 | 0.00 | 0.09 | 0.09 | 96 | 1008.8 |
| 20260506220900 | 57 | 165 | 14.0 | 18.0 | 0.00 | 0.09 | 0.09 | 96 | 1008.8 |
| 20260506220355 | 57 | 24 | 3.0 | 8.0 | 0.00 | 0.09 | 0.09 | 96 | 1008.5 |
| 20260506215852 | 57 | 99 | 6.0 | 11.0 | 0.00 | 0.09 | 0.09 | 96 | 1009.0 |
| 20260506215348 | 57 | 335 | 4.0 | 7.0 | 0.07 | 0.09 | 0.09 | 96 | 1009.2 |
| 20260506214844 | 57 | 134 | 4.0 | 11.0 | 0.00 | 0.08 | 0.08 | 96 | 1009.0 |
| 20260506214341 | 57 | 122 | 10.0 | 15.0 | 0.05 | 0.08 | 0.08 | 95 | 1009.2 |
| 20260506213839 | 57 | 352 | 4.0 | 17.0 | 0.05 | 0.08 | 0.08 | 95 | 1009.0 |
| 20260506213336 | 57 | 95 | 3.0 | 6.0 | 0.00 | 0.07 | 0.07 | 95 | 1009.4 |
| 20260506212833 | 57 | 44 | 4.0 | 11.0 | 0.00 | 0.07 | 0.07 | 95 | 1009.3 |
| 20260506212329 | 57 | 216 | 5.0 | 7.0 | 0.07 | 0.07 | 0.07 | 95 | 1009.5 |
| 20260506211824 | 57 | 178 | 6.0 | 10.0 | 0.00 | 0.06 | 0.06 | 95 | 1009.3 |
| 20260506211320 | 57 | 178 | 8.0 | 16.0 | 0.00 | 0.06 | 0.06 | 94 | 1009.6 |
| 20260506210818 | 57 | 91 | 2.0 | 15.0 | 0.00 | 0.06 | 0.06 | 94 | 1009.7 |
| 20260506210315 | 57 | 140 | 2.0 | 11.0 | 0.00 | 0.06 | 0.06 | 94 | 1009.6 |
| 20260506205812 | 57 | 170 | 5.0 | 11.0 | 0.00 | 0.06 | 0.06 | 94 | 1009.5 |
| 20260506205308 | 58 | 178 | 5.0 | 7.0 | 0.00 | 0.06 | 0.06 | 94 | 1009.9 |
| 20260506204804 | 58 | 175 | 9.0 | 13.0 | 0.00 | 0.06 | 0.06 | 94 | 1009.7 |
| 20260506204302 | 58 | 164 | 9.0 | 16.0 | 0.00 | 0.06 | 0.06 | 94 | 1009.9 |
| 20260506203800 | 58 | 256 | 4.0 | 4.0 | 0.00 | 0.06 | 0.06 | 94 | 1009.9 |
| 20260506203257 | 58 | 173 | 5.0 | 14.0 | 0.00 | 0.06 | 0.06 | 94 | 1009.6 |
| 20260506202754 | 57 | 116 | 4.0 | 21.0 | 0.00 | 0.06 | 0.06 | 94 | 1009.7 |
| 20260506202251 | 58 | 228 | 4.0 | 15.0 | 0.00 | 0.06 | 0.06 | 94 | 1010.0 |
| 20260506201747 | 58 | 154 | 6.0 | 14.0 | 0.00 | 0.06 | 0.06 | 94 | 1009.7 |
| 20260506201244 | 58 | 177 | 6.0 | 9.0 | 0.00 | 0.06 | 0.06 | 94 | 1009.8 |
| 20260506200741 | 58 | 167 | 13.0 | 15.0 | 0.00 | 0.06 | 0.06 | 94 | 1009.8 |
| 20260506200237 | 58 | 77 | 5.0 | 16.0 | 0.00 | 0.06 | 0.06 | 94 | 1010.1 |
| 20260506195733 | 58 | 124 | 4.0 | 14.0 | 0.00 | 0.06 | 0.06 | 94 | 1010.1 |
| 20260506195230 | 58 | 354 | 2.0 | 16.0 | 0.00 | 0.06 | 0.06 | 93 | 1010.0 |
| 20260506194728 | 58 | 307 | 3.0 | 10.0 | 0.00 | 0.06 | 0.06 | 93 | 1010.1 |
| 20260506194224 | 58 | 116 | 9.0 | 16.0 | 0.00 | 0.06 | 0.06 | 93 | 1010.2 |
| 20260506193722 | 58 | 169 | 9.0 | 11.0 | 0.05 | 0.06 | 0.06 | 93 | 1010.0 |
| 20260506193218 | 58 | 17 | 1.0 | 15.0 | 0.12 | 0.06 | 0.06 | 93 | 1010.1 |
| 20260506192716 | 58 | 107 | 10.0 | 14.0 | 0.07 | 0.05 | 0.05 | 92 | 1010.2 |
| 20260506192212 | 58 | 126 | 4.0 | 10.0 | 0.12 | 0.04 | 0.04 | 91 | 1010.3 |
| 20260506191709 | 58 | 191 | 4.0 | 13.0 | 0.07 | 0.03 | 0.03 | 90 | 1010.2 |
| 20260506191205 | 59 | 162 | 2.0 | 14.0 | 0.05 | 0.02 | 0.02 | 89 | 1010.4 |
| 20260506190703 | 59 | 167 | 8.0 | 11.0 | 0.05 | 0.02 | 0.02 | 89 | 1010.2 |
| 20260506190159 | 59 | 140 | 4.0 | 7.0 | 0.00 | 0.01 | 0.01 | 88 | 1010.2 |
| 20260506185656 | 59 | 222 | 8.0 | 14.0 | 0.07 | 0.01 | 0.01 | 87 | 1010.3 |
| 20260506185152 | 59 | 219 | 8.0 | 11.0 | 0.07 | 0.01 | 0.01 | 87 | 1010.4 |
| 20260506184650 | 59 | 348 | 6.0 | 18.0 | 0.00 | 0.00 | 0.00 | 85 | 1010.7 |
| 20260506184147 | 60 | 188 | 8.0 | 18.0 | 0.00 | 0.00 | 0.00 | 83 | 1010.7 |
| 20260506183643 | 60 | 237 | 9.0 | 22.0 | 0.00 | 0.00 | 0.00 | 81 | 1010.7 |
| 20260506183139 | 61 | 191 | 11.0 | 18.0 | 0.00 | 0.00 | 0.00 | 79 | 1010.8 |
| 20260506182637 | 62 | 212 | 11.0 | 19.0 | 0.00 | 0.00 | 0.00 | 76 | 1010.7 |
| 20260506182134 | 62 | 164 | 7.0 | 18.0 | 0.00 | 0.00 | 0.00 | 76 | 1010.8 |
| 20260506181632 | 62 | 175 | 8.0 | 13.0 | 0.00 | 0.00 | 0.00 | 74 | 1010.8 |
| 20260506181129 | 63 | 359 | 3.0 | 8.0 | 0.00 | 0.00 | 0.00 | 74 | 1011.0 |
| 20260506180625 | 63 | 104 | 6.0 | 19.0 | 0.00 | 0.00 | 0.00 | 73 | 1011.0 |
| 20260506180122 | 63 | 72 | 4.0 | 13.0 | 0.00 | 0.00 | 0.00 | 73 | 1011.2 |
| 20260506175618 | 63 | 250 | 7.0 | 18.0 | 0.00 | 0.00 | 0.00 | 73 | 1010.9 |
| 20260506175114 | 64 | 253 | 5.0 | 15.0 | 0.00 | 0.00 | 0.00 | 72 | 1011.0 |
| 20260506174613 | 64 | 202 | 5.0 | 8.0 | 0.00 | 0.00 | 0.00 | 71 | 1011.2 |
| 20260506174109 | 64 | 213 | 5.0 | 18.0 | 0.00 | 0.00 | 0.00 | 71 | 1011.1 |
| 20260506173607 | 64 | 149 | 6.0 | 13.0 | 0.00 | 0.00 | 0.00 | 70 | 1011.1 |
| 20260506173103 | 65 | 170 | 4.0 | 11.0 | 0.00 | 0.00 | 0.00 | 69 | 1011.0 |
| 20260506172601 | 65 | 242 | 11.0 | 18.0 | 0.00 | 0.00 | 0.00 | 69 | 1011.4 |
| 20260506172057 | 66 | 187 | 12.0 | 21.0 | 0.00 | 0.00 | 0.00 | 67 | 1011.6 |
| 20260506171555 | 65 | 135 | 12.0 | 16.0 | 0.00 | 0.00 | 0.00 | 68 | 1011.4 |
| 20260506171052 | 67 | 139 | 13.0 | 19.0 | 0.00 | 0.00 | 0.00 | 66 | 1011.7 |
| 20260506170550 | 67 | 357 | 7.0 | 17.0 | 0.00 | 0.00 | 0.00 | 65 | 1011.1 |
| 20260506170047 | 67 | 193 | 11.0 | 17.0 | 0.00 | 0.00 | 0.00 | 65 | 1011.5 |
| 20260506165545 | 66 | 15 | 2.0 | 8.0 | 0.00 | 0.00 | 0.00 | 68 | 1011.5 |
| 20260506165041 | 66 | 165 | 18.0 | 23.0 | 0.00 | 0.00 | 0.00 | 67 | 1011.4 |
| 20260506164538 | 66 | 164 | 4.0 | 9.0 | 0.00 | 0.00 | 0.00 | 67 | 1011.4 |
| 20260506164036 | 66 | 172 | 7.0 | 19.0 | 0.00 | 0.00 | 0.00 | 67 | 1011.5 |
| 20260506163532 | 66 | 188 | 3.0 | 21.0 | 0.00 | 0.00 | 0.00 | 68 | 1011.5 |
| 20260506163027 | 66 | 145 | 4.0 | 10.0 | 0.00 | 0.00 | 0.00 | 68 | 1011.7 |
| 20260506162524 | 66 | 171 | 4.0 | 10.0 | 0.00 | 0.00 | 0.00 | 67 | 1011.7 |
| 20260506162021 | 66 | 108 | 3.0 | 16.0 | 0.00 | 0.00 | 0.00 | 67 | 1011.8 |
| 20260506161518 | 67 | 199 | 18.0 | 24.0 | 0.00 | 0.00 | 0.00 | 65 | 1011.9 |
| 20260506161010 | 67 | 140 | 7.0 | 16.0 | 0.00 | 0.00 | 0.00 | 65 | 1012.0 |
| 20260506160508 | 68 | 189 | 9.0 | 14.0 | 0.00 | 0.00 | 0.00 | 64 | 1012.1 |
| 20260506160005 | 67 | 16 | 2.0 | 10.0 | 0.00 | 0.00 | 0.00 | 64 | 1011.8 |
| 20260506155503 | 68 | 116 | 7.0 | 13.0 | 0.00 | 0.00 | 0.00 | 64 | 1012.0 |
| 20260506153634 | 68 | 152 | 10.0 | 16.0 | 0.00 | 0.00 | 0.00 | 64 | 1012.3 |
| 20260506153131 | 68 | 148 | 5.0 | 11.0 | 0.00 | 0.00 | 0.00 | 64 | 1012.2 |
| 20260506152628 | 68 | 148 | 9.0 | 11.0 | 0.00 | 0.00 | 0.00 | 64 | 1012.2 |
| 20260506152126 | 67 | 189 | 7.0 | 21.0 | 0.00 | 0.00 | 0.00 | 64 | 1012.4 |
| 20260506151624 | 68 | 150 | 3.0 | 14.0 | 0.00 | 0.00 | 0.00 | 64 | 1012.4 |
| 20260506151121 | 68 | 118 | 6.0 | 15.0 | 0.00 | 0.00 | 0.00 | 64 | 1012.6 |
| 20260506150618 | 68 | 169 | 5.0 | 10.0 | 0.00 | 0.00 | 0.00 | 64 | 1012.3 |
| 20260506150115 | 68 | 135 | 4.0 | 8.0 | 0.00 | 0.00 | 0.00 | 63 | 1012.4 |
| 20260506145612 | 68 | 142 | 10.0 | 11.0 | 0.00 | 0.00 | 0.00 | 65 | 1012.2 |
| 20260506145108 | 67 | 204 | 4.0 | 13.0 | 0.00 | 0.00 | 0.00 | 66 | 1012.4 |
| 20260506144605 | 66 | 147 | 9.0 | 11.0 | 0.00 | 0.00 | 0.00 | 67 | 1012.4 |
| 20260506144102 | 66 | 194 | 4.0 | 10.0 | 0.00 | 0.00 | 0.00 | 68 | 1012.8 |
| 20260506143600 | 65 | 311 | 4.0 | 8.0 | 0.00 | 0.00 | 0.00 | 68 | 1012.6 |
| 20260506143058 | 65 | 169 | 9.0 | 16.0 | 0.00 | 0.00 | 0.00 | 68 | 1012.6 |
| 20260506142555 | 65 | 172 | 5.0 | 8.0 | 0.00 | 0.00 | 0.00 | 69 | 1012.5 |
| 20260506142054 | 65 | 169 | 6.0 | 10.0 | 0.00 | 0.00 | 0.00 | 69 | 1012.5 |
| 20260506141551 | 65 | 152 | 10.0 | 13.0 | 0.00 | 0.00 | 0.00 | 69 | 1012.4 |
| 20260506141049 | 65 | 177 | 5.0 | 15.0 | 0.00 | 0.00 | 0.00 | 69 | 1012.4 |
| 20260506140546 | 65 | 240 | 9.0 | 14.0 | 0.00 | 0.00 | 0.00 | 70 | 1012.5 |
| 20260506140044 | 65 | 97 | 6.0 | 15.0 | 0.00 | 0.00 | 0.00 | 69 | 1012.5 |
| 20260506135540 | 64 | 190 | 6.0 | 10.0 | 0.00 | 0.00 | 0.00 | 69 | 1012.8 |
| 20260506135036 | 65 | 225 | 7.0 | 17.0 | 0.00 | 0.00 | 0.00 | 69 | 1012.4 |
| 20260506134533 | 65 | 135 | 9.0 | 13.0 | 0.00 | 0.00 | 0.00 | 69 | 1012.5 |
| 20260506134029 | 65 | 151 | 6.0 | 10.0 | 0.00 | 0.00 | 0.00 | 68 | 1012.4 |
| 20260506133526 | 65 | 311 | 6.0 | 8.0 | 0.00 | 0.00 | 0.00 | 70 | 1012.5 |
| 20260506133023 | 64 | 106 | 5.0 | 22.0 | 0.00 | 0.00 | 0.00 | 70 | 1012.3 |
| 20260506132520 | 64 | 209 | 7.0 | 10.0 | 0.00 | 0.00 | 0.00 | 71 | 1012.9 |
| 20260506132018 | 64 | 161 | 15.0 | 22.0 | 0.00 | 0.00 | 0.00 | 71 | 1012.8 |
| 20260506131515 | 64 | 227 | 7.0 | 16.0 | 0.00 | 0.00 | 0.00 | 71 | 1013.0 |
| 20260506131011 | 64 | 209 | 7.0 | 16.0 | 0.00 | 0.00 | 0.00 | 72 | 1012.9 |
| 20260506130508 | 64 | 128 | 2.0 | 9.0 | 0.00 | 0.00 | 0.00 | 74 | 1013.0 |
| 20260506130006 | 63 | 168 | 6.0 | 9.0 | 0.00 | 0.00 | 0.00 | 74 | 1013.2 |
| 20260506125504 | 62 | 214 | 5.0 | 14.0 | 0.00 | 0.00 | 0.00 | 76 | 1012.9 |
| 20260506125001 | 62 | 156 | 3.0 | 10.0 | 0.00 | 0.00 | 0.00 | 77 | 1012.9 |
| 20260506124459 | 62 | 163 | 3.0 | 18.0 | 0.00 | 0.00 | 0.00 | 77 | 1013.1 |
| 20260506123957 | 62 | 192 | 12.0 | 14.0 | 0.00 | 0.00 | 0.00 | 77 | 1013.2 |
| 20260506123454 | 61 | 33 | 2.0 | 13.0 | 0.00 | 0.00 | 0.00 | 79 | 1013.1 |
| 20260506122952 | 61 | 138 | 4.0 | 9.0 | 0.00 | 0.00 | 0.00 | 79 | 1013.0 |
| 20260506122448 | 61 | 154 | 11.0 | 16.0 | 0.00 | 0.00 | 0.00 | 79 | 1013.0 |
| 20260506121947 | 60 | 266 | 11.0 | 16.0 | 0.00 | 0.00 | 0.00 | 80 | 1012.8 |
| 20260506121443 | 60 | 159 | 12.0 | 16.0 | 0.00 | 0.00 | 0.00 | 81 | 1012.8 |
| 20260506120940 | 60 | 183 | 11.0 | 21.0 | 0.00 | 0.00 | 0.00 | 80 | 1012.9 |
| 20260506120438 | 60 | 127 | 3.0 | 11.0 | 0.00 | 0.00 | 0.00 | 81 | 1012.9 |
| 20260506115935 | 59 | 197 | 10.0 | 17.0 | 0.00 | 0.00 | 0.00 | 82 | 1013.0 |
| 20260506115433 | 60 | 174 | 15.0 | 19.0 | 0.00 | 0.00 | 0.00 | 82 | 1012.9 |
| 20260506114931 | 59 | 151 | 4.0 | 6.0 | 0.00 | 0.00 | 0.00 | 83 | 1013.3 |
| 20260506114428 | 59 | 273 | 8.0 | 14.0 | 0.00 | 0.00 | 0.00 | 85 | 1013.3 |
| 20260506113927 | 58 | 40 | 1.0 | 13.0 | 0.00 | 0.00 | 0.00 | 86 | 1013.2 |
| 20260506113424 | 58 | 183 | 10.0 | 13.0 | 0.00 | 0.00 | 0.00 | 87 | 1013.4 |
| 20260506112920 | 58 | 177 | 4.0 | 10.0 | 0.00 | 0.00 | 0.00 | 86 | 1013.4 |
| 20260506112418 | 58 | 149 | 6.0 | 11.0 | 0.00 | 0.00 | 0.00 | 86 | 1013.3 |
| 20260506111915 | 58 | 271 | 5.0 | 11.0 | 0.00 | 0.00 | 0.00 | 86 | 1013.1 |
| 20260506111413 | 58 | 185 | 8.0 | 13.0 | 0.00 | 0.00 | 0.00 | 87 | 1013.6 |
| 20260506110910 | 58 | 257 | 6.0 | 15.0 | 0.00 | 0.00 | 0.00 | 87 | 1013.3 |
| 20260506110408 | 58 | 142 | 10.0 | 14.0 | 0.00 | 0.00 | 0.00 | 87 | 1013.3 |
| 20260506105904 | 58 | 193 | 2.0 | 4.0 | 0.00 | 0.00 | 0.00 | 87 | 1013.1 |
| 20260506105400 | 57 | 230 | 3.0 | 21.0 | 0.00 | 0.00 | 0.00 | 88 | 1012.9 |
| 20260506104858 | 57 | 354 | 3.0 | 10.0 | 0.00 | 0.00 | 0.00 | 88 | 1013.2 |
| 20260506104356 | 57 | 28 | 2.0 | 13.0 | 0.00 | 0.00 | 0.00 | 88 | 1013.1 |
| 20260506103853 | 57 | 113 | 4.0 | 7.0 | 0.00 | 0.00 | 0.00 | 88 | 1013.2 |
| 20260506103351 | 57 | 175 | 4.0 | 10.0 | 0.00 | 0.00 | 0.00 | 88 | 1013.3 |
| 20260506102848 | 57 | 144 | 5.0 | 8.0 | 0.00 | 0.00 | 0.00 | 88 | 1013.2 |
| 20260506102346 | 57 | 63 | 3.0 | 13.0 | 0.00 | 0.00 | 0.00 | 88 | 1013.1 |
| 20260506101843 | 57 | 37 | 6.0 | 14.0 | 0.00 | 0.00 | 0.00 | 88 | 1013.2 |
| 20260506101338 | 57 | 245 | 6.0 | 11.0 | 0.00 | 0.00 | 0.00 | 88 | 1013.1 |
| 20260506100837 | 57 | 155 | 6.0 | 8.0 | 0.00 | 0.00 | 0.00 | 88 | 1013.2 |
| 20260506100335 | 56 | 73 | 2.0 | 6.0 | 0.00 | 0.00 | 0.00 | 88 | 1013.2 |
| 20260506095833 | 57 | 87 | 2.0 | 7.0 | 0.00 | 0.00 | 0.00 | 88 | 1013.1 |
| 20260506095330 | 57 | 118 | 5.0 | 14.0 | 0.00 | 0.00 | 0.00 | 88 | 1013.0 |
| 20260506094826 | 57 | 142 | 2.0 | 11.0 | 0.00 | 0.00 | 0.00 | 88 | 1013.0 |
| 20260506094325 | 57 | 224 | 4.0 | 7.0 | 0.00 | 0.00 | 0.00 | 88 | 1013.0 |
| 20260506093823 | 56 | 93 | 3.0 | 7.0 | 0.00 | 0.00 | 0.00 | 87 | 1013.2 |
| 20260506093320 | 57 | 158 | 11.0 | 13.0 | 0.00 | 0.00 | 0.00 | 87 | 1013.0 |
| 20260506092818 | 57 | 269 | 9.0 | 13.0 | 0.00 | 0.00 | 0.00 | 87 | 1012.9 |
| 20260506092315 | 57 | 197 | 6.0 | 9.0 | 0.00 | 0.00 | 0.00 | 87 | 1013.1 |
| 20260506091812 | 57 | 65 | 2.0 | 8.0 | 0.00 | 0.00 | 0.00 | 87 | 1013.1 |
| 20260506091310 | 57 | 44 | 2.0 | 9.0 | 0.00 | 0.00 | 0.00 | 87 | 1013.1 |
| 20260506090807 | 57 | 308 | 4.0 | 10.0 | 0.00 | 0.00 | 0.00 | 87 | 1013.4 |
| 20260506090304 | 57 | 158 | 7.0 | 15.0 | 0.00 | 0.00 | 0.00 | 87 | 1013.2 |
| 20260506085801 | 57 | 179 | 7.0 | 11.0 | 0.00 | 0.00 | 0.00 | 87 | 1013.3 |
| 20260506085257 | 57 | 141 | 9.0 | 13.0 | 0.00 | 0.00 | 0.00 | 86 | 1013.2 |
| 20260506084754 | 57 | 154 | 4.0 | 8.0 | 0.00 | 0.00 | 0.00 | 86 | 1013.3 |
| 20260506084250 | 57 | 181 | 7.0 | 13.0 | 0.00 | 0.00 | 0.00 | 86 | 1013.3 |
| 20260506083747 | 57 | 181 | 8.0 | 11.0 | 0.00 | 0.00 | 0.00 | 86 | 1013.4 |
| 20260506083245 | 57 | 169 | 4.0 | 13.0 | 0.00 | 0.00 | 0.00 | 86 | 1013.4 |
| 20260506082742 | 57 | 119 | 6.0 | 9.0 | 0.00 | 0.00 | 0.00 | 85 | 1013.3 |
| 20260506082237 | 57 | 206 | 12.0 | 15.0 | 0.00 | 0.00 | 0.00 | 85 | 1013.5 |
| 20260506081736 | 57 | 192 | 5.0 | 13.0 | 0.00 | 0.00 | 0.00 | 85 | 1013.3 |
| 20260506081233 | 57 | 261 | 7.0 | 14.0 | 0.00 | 0.00 | 0.00 | 85 | 1013.4 |
| 20260506080731 | 57 | 260 | 5.0 | 16.0 | 0.00 | 0.00 | 0.00 | 84 | 1013.4 |
| 20260506080227 | 58 | 130 | 6.0 | 9.0 | 0.00 | 0.00 | 0.00 | 84 | 1013.5 |
| 20260506073211 | 58 | 333 | 2.0 | 13.0 | 0.00 | 0.00 | 0.00 | 83 | 1013.4 |